[[{"header":{"parameterUnit":"m.s-1","parameterCategory":2,"la1":30.2991,"la2":30.254,"lo1":-89.0895,"lo2":-89.0444,"dy":0.0017,"dx":0.0017,"nx":28,"ny":28,"refTime":"2024-05-25T09:00:00:Z","depth":"0","parameterNumber":2,"parameterNumberName":"U-component_of_CURRENTS"},"data":[0,0,0,0,0,0,0,0,0,0,0,0,0,0,0,0,0,0,0,0,0,0,0,0,0,0,0,0,0,0,0,0,0,0,0,0,0,0,0,0,0,0,0,0,0,0,0,0,0,0,0,0,0,0,0,0,0,0,-0.2951,-0.2952,0,-0.2984,-0.2984,-0.2984,-0.2955,-0.2954,-0.2953,-0.2952,-0.2901,-0.29,-0.29,0,0,0,0,0,0,0,0,0,0,0,0,0,-0.2847,-0.2849,-0.2951,-0.2952,-0.2953,-0.2984,-0.2984,-0.2984,-0.2955,-0.2954,-0.2953,-0.2952,-0.2901,-0.2901,-0.29,0,0,0,0,0,0,0,0,0,0,0,0,0,-0.2884,-0.2849,-0.2951,-0.2944,-0.2944,-0.2984,-0.2984,-0.2984,-0.2955,-0.2954,-0.2953,-0.2951,-0.2901,-0.2901,-0.29,-0.2922,0,0,-0.2897,-0.2897,0,0,0,0,0,0,0,0,-0.2882,-0.2888,-0.2945,-0.2945,-0.2945,-0.2967,-0.2929,-0.296,-0.2956,-0.2948,-0.2952,-0.2951,-0.2918,-0.2916,-0.2922,-0.292,-0.2917,-0.2897,-0.2897,-0.2897,-0.2896,0,0,0,0,0,0,0,-0.2879,-0.2886,-0.2961,-0.2945,-0.2946,-0.2934,-0.2938,-0.2935,-0.2936,-0.2948,-0.2947,-0.2956,-0.2917,-0.2923,-0.292,-0.2917,-0.2897,-0.2897,-0.2896,-0.2896,-0.2923,-0.2924,0,0,0,0,0,0,-0.2885,-0.2884,-0.296,-0.2962,-0.2913,-0.2937,-0.2941,-0.2958,-0.2938,-0.2935,-0.2957,-0.2955,-0.2925,-0.2921,-0.2918,-0.2939,-0.2897,-0.2896,-0.2895,-0.2922,-0.2924,-0.2925,0,0,0,0,0,0,-0.2883,-0.2892,-0.2959,-0.2925,-0.2934,-0.2941,-0.296,-0.296,-0.296,-0.2946,-0.2941,-0.2957,-0.2924,-0.2919,-0.292,-0.2936,-0.2895,-0.2895,-0.2921,-0.2923,-0.2924,-0.2983,0,0,0,0,0,0,-0.288,-0.2891,-0.2899,-0.2926,-0.2936,-0.2983,-0.2962,-0.2962,-0.297,-0.2966,-0.2945,-0.2939,-0.2922,-0.2922,-0.2919,-0.2935,-0.2894,-0.2919,-0.2921,-0.2924,-0.2979,-0.2986,-0.2992,0,0,0,0,0,-0.2876,-0.2896,-0.29,-0.2909,-0.295,-0.2984,-0.2988,-0.2986,-0.2971,-0.2978,-0.2966,-0.294,-0.2934,-0.2922,-0.2919,-0.2935,-0.2918,-0.2921,-0.2923,-0.2976,-0.2985,-0.2992,0,0,0,0,0,0,-0.2849,-0.2897,-0.29,-0.2932,-0.2957,-0.298,-0.2988,-0.2989,-0.2988,-0.2979,-0.2956,-0.2951,-0.2957,-0.2942,-0.293,-0.295,-0.2921,-0.2924,-0.2963,-0.297,-0.2977,-0.2972,-0.2893,0,0,0,0,0,-0.2852,-0.2878,-0.2918,-0.2939,-0.2955,-0.2972,-0.2983,-0.2988,-0.2995,-0.2992,-0.2979,-0.2968,-0.297,-0.2966,-0.296,-0.2974,-0.2946,-0.2982,-0.2989,-0.2995,-0.299,-0.2976,-0.298,-0.2934,-0.2934,-0.2934,0,0,-0.2843,-0.2874,-0.2886,-0.2934,-0.2951,-0.2988,-0.2974,-0.2999,-0.3022,-0.2988,-0.3,-0.2988,-0.2978,-0.2993,-0.2994,-0.298,-0.2993,-0.2998,-0.3003,-0.2994,-0.2979,-0.2983,-0.2987,-0.2936,-0.2935,-0.2935,0,0,-0.2851,-0.2873,-0.2902,-0.2934,-0.2975,-0.2993,-0.3002,-0.3031,-0.3033,-0.3056,-0.3036,-0.3035,-0.3035,-0.3033,-0.3033,-0.3074,-0.3027,-0.3071,-0.31,-0.3087,-0.309,-0.3093,-0.3059,-0.3058,-0.3075,-0.3076,-0.3076,0,-0.2836,-0.2888,-0.2912,-0.2958,-0.2985,-0.2998,-0.3038,-0.3054,-0.3075,-0.308,-0.3064,-0.3067,-0.3058,-0.3076,-0.3091,-0.3088,-0.3062,-0.3071,-0.3095,-0.3097,-0.3098,-0.3062,-0.306,-0.3079,-0.3078,-0.3078,-0.3078,0,-0.2877,-0.2918,-0.2939,-0.3002,-0.3033,-0.3068,-0.3106,-0.3122,-0.3124,-0.3135,-0.3144,-0.3133,-0.3131,-0.3135,-0.3126,-0.3139,-0.3109,-0.3103,-0.3072,-0.3106,-0.3066,-0.3063,-0.3083,-0.3082,-0.3081,-0.308,0,0,-0.2825,-0.2946,-0.2947,-0.2988,-0.3061,-0.3086,-0.3135,-0.3176,-0.3188,-0.3201,-0.3208,-0.3223,-0.3201,-0.3198,-0.3183,-0.3175,-0.3168,-0.3145,-0.3143,-0.3106,-0.3118,-0.3027,-0.3015,-0.3162,-0.3162,-0.3162,-0.3084,0,-0.2841,-0.2932,-0.299,-0.3058,-0.3104,-0.3148,-0.3188,-0.3223,-0.3235,-0.3242,-0.3238,-0.3236,-0.3231,-0.3218,-0.3216,-0.318,-0.3162,-0.3188,-0.3095,-0.3091,-0.3003,-0.301,-0.2885,-0.2798,-0.3081,-0.308,-0.308,0,-0.2846,-0.2912,-0.299,-0.309,-0.3111,-0.315,-0.3199,-0.3239,-0.3266,-0.3274,-0.3279,-0.3264,-0.3265,-0.3242,-0.3206,-0.3219,-0.3172,-0.3139,-0.3135,-0.3025,-0.2995,-0.2811,-0.2782,-0.276,-0.3074,-0.3075,-0.3075,0,-0.2775,-0.2899,-0.2958,-0.2995,-0.3112,-0.3141,-0.3186,-0.3232,-0.326,-0.3276,-0.3283,-0.3282,-0.3268,-0.3231,-0.3179,-0.3188,-0.3112,-0.3118,-0.2988,-0.2981,-0.2841,-0.2821,-0.2772,-0.3074,-0.3074,-0.3074,-0.3075,0,-0.2757,-0.2795,-0.2929,-0.2958,-0.3009,-0.31,-0.3137,-0.3179,-0.3232,-0.3245,-0.328,-0.3271,-0.3264,-0.3225,-0.3175,-0.3065,-0.3111,-0.2981,-0.2954,-0.2858,-0.2841,-0.2789,-0.2825,-0.3071,-0.3072,-0.3073,-0.3073,0,-0.265,-0.2751,-0.2816,-0.2942,-0.2977,-0.2998,-0.3109,-0.3137,-0.3198,-0.3212,-0.3217,-0.326,-0.3206,-0.3175,-0.3101,-0.3046,-0.29,-0.2901,-0.2777,-0.2736,-0.2593,-0.2637,-0.2559,-0.2486,-0.2745,-0.2742,-0.274,0,-0.26,-0.263,-0.2762,-0.2801,-0.2855,-0.292,-0.2969,-0.3082,-0.3117,-0.3186,-0.3179,-0.3164,-0.3096,-0.2975,-0.2882,-0.2759,-0.2775,-0.2585,-0.2584,-0.2554,-0.2585,-0.2629,-0.2577,-0.2422,-0.2418,-0.2414,-0.2411,0,-0.2488,-0.2537,-0.2597,-0.2656,-0.272,-0.2763,-0.284,-0.2855,-0.2967,-0.2989,-0.2964,-0.2915,-0.2874,-0.2708,-0.2596,-0.2506,-0.2528,-0.25,-0.2504,-0.235,-0.236,-0.2285,-0.2506,-0.2376,-0.238,-0.2382,-0.2384,-0.2386,-0.2375,-0.2384,-0.2446,-0.2467,-0.2517,-0.2468,-0.2391,-0.246,-0.2417,-0.2289,-0.2625,-0.2476,-0.2592,-0.2406,-0.233,-0.2177,-0.226,-0.2103,-0.2164,-0.2214,-0.213,-0.2265,-0.209,-0.2091,-0.2093,-0.2094,-0.2095,0,-0.2204,-0.2218,-0.2249,-0.2211,-0.2108,-0.2216,-0.2188,-0.2031,-0.181,-0.1827,-0.1806,-0.2027,-0.1975,-0.2036,-0.2001,-0.1887,-0.1851,-0.1837,-0.188,-0.1844,-0.1968,-0.1938,-0.1681,-0.1681,-0.1681,-0.1681,-0.1681,-0.1681,-0.2123,-0.2055,-0.2044,-0.1759,-0.1716,-0.1485,-0.1378,-0.118,-0.1085,-0.0889,-0.094,-0.1076,-0.1521,-0.1948,-0.1894,-0.1788,-0.1757,-0.1684,-0.1733,-0.1847,-0.1877,-0.1907,-0.1885,-0.1621,-0.1621,-0.1521,-0.1521,-0.1521]},{"header":{"parameterUnit":"m.s-1","parameterCategory":2,"la1":30.2991,"la2":30.254,"lo1":-89.0895,"lo2":-89.0444,"dy":0.0017,"dx":0.0017,"nx":28,"ny":28,"refTime":"2024-05-25T09:00:00:Z","depth":"0","parameterNumber":3,"parameterNumberName":"V-component_of_CURRENTS"},"data":[0,0,0,0,0,0,0,0,0,0,0,0,0,0,0,0,0,0,0,0,0,0,0,0,0,0,0,0,0,0,0,0,0,0,0,0,0,0,0,0,0,0,0,0,0,0,0,0,0,0,0,0,0,0,0,0,0,0,-0.0143,-0.0142,0,-0.0032,-0.003,-0.0029,0.0056,0.0056,0.0057,0.0058,0.0192,0.0195,0.0198,0,0,0,0,0,0,0,0,0,0,0,0,0,-0.0216,-0.0215,-0.0143,-0.0142,-0.0141,-0.0032,-0.003,-0.0029,0.0056,0.0056,0.0057,0.0058,0.0191,0.0195,0.0199,0,0,0,0,0,0,0,0,0,0,0,0,0,-0.0151,-0.0215,-0.0144,-0.0087,-0.0081,-0.0032,-0.003,-0.0028,0.0056,0.0056,0.0057,0.0058,0.019,0.0195,0.0199,0.021,0,0,0.0213,0.0215,0,0,0,0,0,0,0,0,-0.0154,-0.0148,-0.0097,-0.0091,-0.0085,-0.0003,-0.0007,0.0052,0.0055,0.0006,0.0058,0.0059,0.0127,0.0137,0.0159,0.0217,0.0222,0.0214,0.0216,0.0218,0.022,0,0,0,0,0,0,0,-0.0159,-0.0152,-0.0097,-0.0096,-0.0088,-0.0045,-0.0035,0.0005,0.0063,0.001,0.0016,0.0025,0.0131,0.0154,0.0163,0.0224,0.0213,0.0218,0.022,0.0222,0.0318,0.0318,0,0,0,0,0,0,-0.0182,-0.0156,-0.01,-0.0094,-0.0121,-0.0045,-0.0034,-0.0028,0.0062,0.0076,0.0024,0.0028,0.0146,0.0157,0.0168,0.0188,0.0218,0.0223,0.0225,0.0318,0.0318,0.0318,0,0,0,0,0,0,-0.0184,-0.0178,-0.0105,-0.0124,-0.0112,-0.0045,-0.0039,-0.0026,-0.0004,0.0071,0.0086,0.0033,0.0147,0.0161,0.0201,0.0194,0.0225,0.0229,0.0318,0.0318,0.0318,0.0227,0,0,0,0,0,0,-0.0187,-0.018,-0.0188,-0.0126,-0.0112,-0.0089,-0.004,-0.0025,-0.0001,0.0006,0.0084,0.0097,0.0149,0.0193,0.0205,0.02,0.0232,0.0319,0.0318,0.0318,0.023,0.0224,0.0218,0,0,0,0,0,-0.019,-0.0209,-0.0189,-0.0182,-0.0124,-0.009,-0.0079,-0.0026,-0.0002,-0.0001,0.0056,0.0095,0.02,0.0196,0.021,0.0207,0.0319,0.0318,0.0318,0.0233,0.0225,0.0218,0,0,0,0,0,0,-0.0246,-0.0201,-0.0177,-0.0182,-0.0144,-0.0077,-0.0075,-0.0037,0.0009,0.0016,0.0091,0.0108,0.0135,0.0184,0.0179,0.0235,0.0266,0.0269,0.0197,0.019,0.0184,0.0169,0.0236,0,0,0,0,0,-0.0264,-0.0266,-0.0211,-0.0217,-0.0203,-0.014,-0.0121,-0.0086,-0.0036,-0.0014,0.0041,0.01,0.0144,0.0176,0.0217,0.025,0.0307,0.0259,0.0252,0.0247,0.0245,0.032,0.032,0.0316,0.0316,0.0316,0,0,-0.0288,-0.0264,-0.0265,-0.0229,-0.0195,-0.0187,-0.0126,-0.0108,-0.0095,-0.0008,0.002,0.0072,0.0144,0.0177,0.0196,0.022,0.0278,0.0246,0.0241,0.0242,0.0319,0.032,0.032,0.0316,0.0316,0.0316,0,0,-0.0346,-0.0316,-0.0339,-0.0311,-0.0273,-0.023,-0.0231,-0.0169,-0.0137,-0.0105,-0.0041,0.0012,0.0076,0.0138,0.0175,0.0162,0.0232,0.017,0.014,0.0212,0.0213,0.0215,0.0285,0.0294,0.018,0.018,0.0179,0,-0.0381,-0.0394,-0.0341,-0.0351,-0.0335,-0.0258,-0.0271,-0.0228,-0.0161,-0.0133,-0.0112,0.0003,0.0061,0.0122,0.0119,0.0148,0.0197,0.0159,0.0204,0.0207,0.021,0.0282,0.0292,0.0175,0.0176,0.0176,0.0177,0,-0.0447,-0.0456,-0.0467,-0.045,-0.0424,-0.0425,-0.0357,-0.0328,-0.028,-0.0225,-0.0164,-0.0077,-0.0001,0.0023,0.0068,0.012,0.0149,0.0175,0.0218,0.0204,0.0281,0.0294,0.0169,0.017,0.0172,0.0173,0,0,-0.0532,-0.0521,-0.0523,-0.0529,-0.0476,-0.0462,-0.0437,-0.0386,-0.0359,-0.0288,-0.0243,-0.0159,-0.0096,-0.005,0.0022,0.009,0.0155,0.0134,0.014,0.0196,0.0312,0.0385,0.0407,0.0184,0.0186,0.0187,0.0356,0,-0.0603,-0.0657,-0.0615,-0.0643,-0.066,-0.0573,-0.0552,-0.0487,-0.0417,-0.0353,-0.0243,-0.018,-0.0126,-0.0085,-0.0012,0.0114,0.0184,0.0107,0.0325,0.0331,0.0392,0.0423,0.0489,0.065,0.0369,0.0371,0.0372,0,-0.0679,-0.0705,-0.0758,-0.0737,-0.0732,-0.0726,-0.0659,-0.0629,-0.0512,-0.0453,-0.0358,-0.0262,-0.0144,-0.0102,0.0104,0.005,0.0166,0.0264,0.0273,0.0383,0.0429,0.0621,0.0684,0.0868,0.0393,0.0391,0.039,0,-0.0771,-0.0793,-0.0841,-0.0836,-0.0803,-0.0796,-0.0766,-0.0667,-0.0628,-0.0508,-0.0456,-0.0307,-0.0215,-0.0063,0.0144,0.0126,0.0374,0.0383,0.0559,0.0566,0.0689,0.0703,0.0952,0.0522,0.0521,0.0521,0.052,0,-0.0859,-0.0891,-0.0891,-0.0917,-0.0954,-0.0886,-0.0882,-0.0824,-0.072,-0.0646,-0.0517,-0.0416,-0.0202,-0.0025,0.0139,0.0401,0.038,0.0567,0.0621,0.0659,0.0668,0.0887,0.0952,0.0527,0.0526,0.0524,0.0523,0,-0.0945,-0.095,-0.1003,-0.1001,-0.1004,-0.1026,-0.0975,-0.0948,-0.0848,-0.0743,-0.0702,-0.0486,-0.0239,-0.0017,0.0265,0.0412,0.0777,0.0732,0.0762,0.0817,0.1141,0.1197,0.1486,0.1615,0.0958,0.0961,0.0963,0,-0.0991,-0.1035,-0.1081,-0.1118,-0.1121,-0.1137,-0.1131,-0.1036,-0.0972,-0.0759,-0.0695,-0.045,-0.0214,0.0206,0.0504,0.0821,0.0931,0.1042,0.1022,0.119,0.1293,0.131,0.1398,0.1152,0.1156,0.1159,0.1162,0,-0.1072,-0.1088,-0.1133,-0.1207,-0.123,-0.1236,-0.1199,-0.1152,-0.098,-0.0828,-0.0549,-0.0347,0.0038,0.0454,0.081,0.0983,0.12,0.1116,0.1297,0.1478,0.151,0.1649,0.1,0.1189,0.1187,0.1185,0.1183,0.1182,-0.111,-0.1161,-0.1205,-0.1259,-0.1286,-0.1237,-0.1187,-0.1071,-0.0885,-0.0564,-0.0377,0.0047,0.044,0.0979,0.1168,0.1555,0.1475,0.1661,0.1719,0.1723,0.1844,0.1252,0.1491,0.149,0.149,0.1489,0.1488,0,-0.1101,-0.1151,-0.1237,-0.1256,-0.1239,-0.1248,-0.1143,-0.1012,-0.0714,-0.0422,-0.0057,0.0661,0.1125,0.1461,0.1935,0.2146,0.2183,0.2225,0.2274,0.2339,0.1842,0.1846,0.2165,0.2165,0.2165,0.2164,0.2164,0.2164,-0.1093,-0.1144,-0.118,-0.1151,-0.1153,-0.1037,-0.0936,-0.0731,-0.0485,0.0079,0.0563,0.0902,0.1428,0.2192,0.2635,0.266,0.2856,0.2816,0.2925,0.2578,0.2529,0.2482,0.2504,0.2956,0.2957,0.3412,0.3417,0.342]}],[{"header":{"parameterUnit":"m.s-1","parameterCategory":2,"la1":30.2991,"la2":30.254,"lo1":-89.0895,"lo2":-89.0444,"dy":0.0017,"dx":0.0017,"nx":28,"ny":28,"refTime":"2024-05-25T09:00:00:Z","depth":"2","parameterNumber":2,"parameterNumberName":"U-component_of_CURRENTS"},"data":[0,0,0,0,0,0,0,0,0,0,0,0,0,0,0,0,0,0,0,0,0,0,0,0,0,0,0,0,0,0,0,0,0,0,0,0,0,0,0,0,0,0,0,0,0,0,0,0,0,0,0,0,0,0,0,0,0,0,-0.2715,-0.2716,0,-0.2759,-0.2759,-0.2759,-0.2743,-0.2743,-0.2742,-0.2741,-0.2716,-0.2716,-0.2716,0,0,0,0,0,0,0,0,0,0,0,0,0,-0.2612,-0.2614,-0.2715,-0.2716,-0.2717,-0.2759,-0.2759,-0.276,-0.2744,-0.2743,-0.2742,-0.2741,-0.2716,-0.2716,-0.2716,0,0,0,0,0,0,0,0,0,0,0,0,0,-0.2654,-0.2614,-0.2715,-0.2716,-0.2717,-0.2759,-0.2759,-0.276,-0.2744,-0.2743,-0.2742,-0.274,-0.2716,-0.2716,-0.2716,-0.2738,0,0,-0.2716,-0.2716,0,0,0,0,0,0,0,0,-0.2651,-0.2657,-0.2715,-0.2716,-0.2717,-0.2747,-0.2714,-0.275,-0.2744,-0.273,-0.2741,-0.274,-0.2723,-0.2722,-0.273,-0.2737,-0.2736,-0.2716,-0.2716,-0.2716,-0.2716,0,0,0,0,0,0,0,-0.2648,-0.2655,-0.273,-0.2716,-0.2717,-0.2712,-0.2717,-0.2721,-0.2729,-0.2732,-0.2731,-0.2741,-0.2722,-0.273,-0.2729,-0.2736,-0.2716,-0.2716,-0.2716,-0.2716,-0.2765,-0.2766,0,0,0,0,0,0,-0.2651,-0.2653,-0.2728,-0.2731,-0.2684,-0.2715,-0.272,-0.2736,-0.273,-0.273,-0.2742,-0.274,-0.273,-0.2729,-0.2728,-0.276,-0.2716,-0.2716,-0.2716,-0.2764,-0.2765,-0.2767,0,0,0,0,0,0,-0.2649,-0.2657,-0.2727,-0.2694,-0.2703,-0.2719,-0.2737,-0.2738,-0.2745,-0.2739,-0.2736,-0.2748,-0.2729,-0.2728,-0.274,-0.2758,-0.2716,-0.2716,-0.2762,-0.2764,-0.2766,-0.282,0,0,0,0,0,0,-0.2646,-0.2656,-0.2666,-0.2695,-0.2705,-0.2756,-0.2738,-0.2739,-0.2754,-0.2752,-0.2744,-0.274,-0.2728,-0.274,-0.274,-0.2758,-0.2716,-0.2761,-0.2763,-0.2765,-0.2817,-0.2824,-0.283,0,0,0,0,0,-0.2642,-0.2662,-0.2667,-0.2676,-0.2719,-0.2757,-0.2762,-0.2766,-0.2755,-0.2766,-0.2763,-0.2741,-0.2755,-0.2742,-0.2741,-0.2759,-0.2759,-0.2762,-0.2765,-0.2814,-0.2822,-0.2829,0,0,0,0,0,0,-0.2619,-0.2664,-0.2669,-0.27,-0.2729,-0.2755,-0.2767,-0.2772,-0.2779,-0.2774,-0.2759,-0.2757,-0.2773,-0.2763,-0.2749,-0.2781,-0.2753,-0.2756,-0.279,-0.2798,-0.2804,-0.2797,-0.2716,0,0,0,0,0,-0.2622,-0.2647,-0.2687,-0.2709,-0.2727,-0.2747,-0.2762,-0.2771,-0.2784,-0.2786,-0.2782,-0.278,-0.2787,-0.2789,-0.2791,-0.2812,-0.2786,-0.2823,-0.283,-0.2835,-0.283,-0.282,-0.2824,-0.2776,-0.2776,-0.2776,0,0,-0.2617,-0.2646,-0.2658,-0.2706,-0.2726,-0.2764,-0.2752,-0.2783,-0.2809,-0.2783,-0.2806,-0.2801,-0.2798,-0.282,-0.2826,-0.2813,-0.2835,-0.2839,-0.2843,-0.2835,-0.2823,-0.2828,-0.2832,-0.2778,-0.2778,-0.2778,0,0,-0.2627,-0.2649,-0.2677,-0.271,-0.2753,-0.2773,-0.2784,-0.2817,-0.2825,-0.2857,-0.2842,-0.2849,-0.2862,-0.2864,-0.2866,-0.2911,-0.2869,-0.2912,-0.2939,-0.293,-0.2934,-0.2936,-0.2905,-0.2905,-0.2916,-0.2916,-0.2917,0,-0.2617,-0.2664,-0.2689,-0.2732,-0.276,-0.2779,-0.2819,-0.284,-0.2871,-0.2879,-0.2869,-0.2888,-0.2885,-0.2908,-0.2924,-0.2925,-0.2902,-0.291,-0.2937,-0.2939,-0.2941,-0.2909,-0.2907,-0.2919,-0.2919,-0.2919,-0.2918,0,-0.2656,-0.2696,-0.2716,-0.2777,-0.2809,-0.2846,-0.2887,-0.291,-0.292,-0.2935,-0.2956,-0.2954,-0.296,-0.2967,-0.296,-0.2977,-0.295,-0.2945,-0.2914,-0.2949,-0.2913,-0.291,-0.2924,-0.2923,-0.2922,-0.2921,0,0,-0.2614,-0.2723,-0.2726,-0.2762,-0.2837,-0.2863,-0.2917,-0.2962,-0.2979,-0.3004,-0.3017,-0.3041,-0.3026,-0.3027,-0.3017,-0.3012,-0.3008,-0.2985,-0.2983,-0.2947,-0.2967,-0.2871,-0.2858,-0.3005,-0.3005,-0.3005,-0.2935,0,-0.263,-0.2714,-0.2765,-0.2831,-0.2876,-0.2922,-0.2966,-0.3007,-0.3028,-0.3044,-0.3048,-0.3057,-0.3054,-0.3049,-0.3049,-0.3019,-0.3004,-0.3025,-0.2944,-0.2941,-0.2846,-0.2854,-0.2652,-0.2565,-0.2932,-0.2932,-0.2932,0,-0.2637,-0.2698,-0.2772,-0.2862,-0.2882,-0.2921,-0.2976,-0.3021,-0.306,-0.3074,-0.3089,-0.3084,-0.3091,-0.3072,-0.3045,-0.3057,-0.3014,-0.2986,-0.2982,-0.2868,-0.284,-0.2592,-0.2547,-0.2927,-0.2927,-0.2928,-0.2928,0,-0.2578,-0.2689,-0.2744,-0.2779,-0.2888,-0.2915,-0.2962,-0.3018,-0.3051,-0.308,-0.3094,-0.3102,-0.3098,-0.3067,-0.3022,-0.3031,-0.2965,-0.2973,-0.2842,-0.2834,-0.2632,-0.2606,-0.2934,-0.2935,-0.2935,-0.2935,-0.2935,0,-0.2564,-0.26,-0.2719,-0.2747,-0.2793,-0.2882,-0.2921,-0.2965,-0.303,-0.3049,-0.3093,-0.309,-0.3096,-0.3064,-0.3018,-0.2914,-0.2965,-0.2834,-0.2809,-0.2645,-0.2622,-0.2915,-0.2914,-0.2932,-0.2933,-0.2933,-0.2934,0,-0.2475,-0.2566,-0.2621,-0.2734,-0.2766,-0.2786,-0.2893,-0.2917,-0.2998,-0.3021,-0.3032,-0.3082,-0.3034,-0.3014,-0.295,-0.2897,-0.2814,-0.2759,-0.2556,-0.2508,-0.2689,-0.2691,-0.2611,-0.2607,-0.2603,-0.26,-0.2598,0,-0.2433,-0.2462,-0.257,-0.2586,-0.2631,-0.2694,-0.2733,-0.2864,-0.2897,-0.2993,-0.2984,-0.2985,-0.2925,-0.2816,-0.2712,-0.2596,-0.2697,-0.2361,-0.2347,-0.2671,-0.2655,-0.2664,-0.2671,-0.2099,-0.2093,-0.2088,-0.2083,0,-0.2328,-0.2365,-0.2401,-0.2443,-0.2485,-0.2545,-0.2617,-0.2654,-0.2789,-0.2832,-0.2834,-0.28,-0.2707,-0.2494,-0.2376,-0.2287,-0.2369,-0.2252,-0.2627,-0.2221,-0.2185,-0.2172,-0.2196,-0.2038,-0.2042,-0.2046,-0.2048,-0.205,-0.2205,-0.2193,-0.2231,-0.2251,-0.2307,-0.2338,-0.2333,-0.244,-0.2483,-0.2502,-0.2581,-0.2459,-0.2419,-0.2109,-0.1991,-0.1899,-0.2058,-0.1973,-0.199,-0.2012,-0.1975,-0.1935,-0.1732,-0.1735,-0.1737,-0.1739,-0.1741,0,-0.2028,-0.2027,-0.2034,-0.2041,-0.2017,-0.2133,-0.2201,-0.2154,-0.2151,-0.2215,-0.2191,-0.1918,-0.1774,-0.1737,-0.152,-0.1483,-0.1482,-0.1428,-0.1433,-0.1478,-0.1518,-0.1458,-0.1078,-0.1076,-0.1074,-0.1072,0,0,-0.1925,-0.1853,-0.1859,-0.1735,-0.1754,-0.1666,-0.1679,-0.1678,-0.1682,-0.1629,-0.1592,-0.1678,-0.1677,-0.138,-0.1312,-0.1161,-0.1309,-0.11,-0.1629,-0.1678,-0.1717,-0.1822,-0.1778,0,0,0,0,0]},{"header":{"parameterUnit":"m.s-1","parameterCategory":2,"la1":30.2991,"la2":30.254,"lo1":-89.0895,"lo2":-89.0444,"dy":0.0017,"dx":0.0017,"nx":28,"ny":28,"refTime":"2024-05-25T09:00:00:Z","depth":"2","parameterNumber":3,"parameterNumberName":"V-component_of_CURRENTS"},"data":[0,0,0,0,0,0,0,0,0,0,0,0,0,0,0,0,0,0,0,0,0,0,0,0,0,0,0,0,0,0,0,0,0,0,0,0,0,0,0,0,0,0,0,0,0,0,0,0,0,0,0,0,0,0,0,0,0,0,-0.0219,-0.0218,0,-0.0115,-0.0114,-0.0113,-0.004,-0.0039,-0.0039,-0.0039,0.009,0.0093,0.0097,0,0,0,0,0,0,0,0,0,0,0,0,0,-0.0289,-0.0288,-0.0219,-0.0218,-0.0217,-0.0116,-0.0114,-0.0112,-0.004,-0.0039,-0.0039,-0.0039,0.0089,0.0093,0.0097,0,0,0,0,0,0,0,0,0,0,0,0,0,-0.0227,-0.0288,-0.0219,-0.017,-0.0165,-0.0116,-0.0114,-0.0112,-0.004,-0.0039,-0.0039,-0.0038,0.0088,0.0093,0.0097,0.0116,0,0,0.0112,0.0114,0,0,0,0,0,0,0,0,-0.0231,-0.0225,-0.0178,-0.0173,-0.0168,-0.0092,-0.0091,-0.0035,-0.004,-0.0085,-0.0039,-0.0038,0.003,0.0039,0.0061,0.0122,0.0127,0.0112,0.0115,0.0117,0.0118,0,0,0,0,0,0,0,-0.0235,-0.0228,-0.0175,-0.0177,-0.0171,-0.0131,-0.0122,-0.008,-0.0029,-0.0081,-0.0076,-0.0068,0.0033,0.0056,0.0064,0.0129,0.0112,0.0116,0.0119,0.0121,0.0233,0.0233,0,0,0,0,0,0,-0.0257,-0.0233,-0.0179,-0.0173,-0.0201,-0.0131,-0.0121,-0.0115,-0.003,-0.0018,-0.0069,-0.0066,0.0048,0.0059,0.0069,0.01,0.0117,0.0121,0.0124,0.0232,0.0233,0.0233,0,0,0,0,0,0,-0.0259,-0.0253,-0.0183,-0.0202,-0.0191,-0.0131,-0.0125,-0.0113,-0.0092,-0.0022,-0.0008,-0.006,0.0049,0.0062,0.0105,0.0105,0.0123,0.0128,0.0232,0.0232,0.0233,0.0158,0,0,0,0,0,0,-0.0261,-0.0255,-0.026,-0.0204,-0.019,-0.0164,-0.0125,-0.0112,-0.0089,-0.0083,-0.001,0.0003,0.005,0.0098,0.011,0.0112,0.0131,0.0232,0.0232,0.0233,0.016,0.0156,0.0152,0,0,0,0,0,-0.0264,-0.0277,-0.0261,-0.0255,-0.02,-0.0164,-0.0154,-0.0108,-0.0089,-0.0085,-0.0033,0.0001,0.0109,0.0102,0.0116,0.0119,0.0232,0.0232,0.0233,0.0162,0.0157,0.0152,0,0,0,0,0,0,-0.0311,-0.027,-0.0251,-0.0251,-0.0215,-0.0153,-0.0148,-0.0116,-0.0071,-0.0066,0.0002,0.0018,0.0051,0.0097,0.0087,0.0153,0.0176,0.018,0.0118,0.0114,0.011,0.0092,0.0135,0,0,0,0,0,-0.0326,-0.0325,-0.0276,-0.0277,-0.0263,-0.0208,-0.0189,-0.0157,-0.011,-0.0089,-0.0037,0.002,0.0064,0.0097,0.0139,0.0178,0.0224,0.0191,0.0186,0.0182,0.0178,0.0247,0.0248,0.0234,0.0234,0.0234,0,0,-0.0345,-0.0323,-0.0322,-0.0287,-0.0256,-0.0243,-0.0194,-0.0174,-0.0157,-0.0083,-0.0049,-0.0002,0.0068,0.0107,0.0128,0.0148,0.0211,0.0183,0.0179,0.0177,0.0247,0.0249,0.025,0.0234,0.0234,0.0234,0,0,-0.0389,-0.0364,-0.0379,-0.0351,-0.0315,-0.0276,-0.0276,-0.0218,-0.0187,-0.0151,-0.0095,-0.0043,0.0024,0.0083,0.0119,0.012,0.0175,0.0129,0.0107,0.0173,0.0174,0.0176,0.0233,0.024,0.014,0.0139,0.0139,0,-0.0416,-0.0422,-0.0378,-0.038,-0.0363,-0.0298,-0.0303,-0.0261,-0.0196,-0.0169,-0.0153,-0.0041,0.0016,0.0081,0.0081,0.0111,0.0149,0.0117,0.0166,0.0169,0.0172,0.023,0.0239,0.0136,0.0136,0.0137,0.0137,0,-0.0463,-0.0465,-0.0471,-0.0451,-0.0426,-0.042,-0.0358,-0.033,-0.0287,-0.0237,-0.0177,-0.0094,-0.0022,0.0004,0.0043,0.0097,0.0115,0.014,0.0174,0.0169,0.0231,0.0241,0.0131,0.0132,0.0133,0.0134,0,0,-0.0533,-0.0511,-0.0514,-0.0514,-0.0462,-0.0448,-0.0418,-0.0368,-0.0343,-0.0274,-0.0232,-0.0146,-0.0095,-0.005,0.0014,0.0077,0.0134,0.011,0.0115,0.0156,0.0269,0.0313,0.033,0.0161,0.0163,0.0164,0.0301,0,-0.0585,-0.062,-0.0579,-0.0592,-0.0602,-0.0526,-0.0501,-0.0443,-0.038,-0.0322,-0.0222,-0.0163,-0.0115,-0.008,-0.0012,0.0097,0.016,0.0094,0.0277,0.0282,0.0314,0.0344,0.0298,0.042,0.0313,0.0314,0.0316,0,-0.0643,-0.0659,-0.0694,-0.0666,-0.066,-0.0649,-0.0591,-0.0558,-0.0453,-0.0402,-0.0317,-0.0235,-0.0126,-0.0091,0.0092,0.0043,0.0143,0.0228,0.0236,0.031,0.0347,0.041,0.0444,0.0335,0.0333,0.0332,0.0331,0,-0.0729,-0.0731,-0.0765,-0.0757,-0.0717,-0.0708,-0.0678,-0.0591,-0.0555,-0.045,-0.0409,-0.0271,-0.0192,-0.0058,0.012,0.0106,0.0319,0.0331,0.0466,0.0471,0.0487,0.049,0.0455,0.0455,0.0454,0.0454,0.0453,0,-0.0801,-0.0823,-0.0811,-0.083,-0.0856,-0.0791,-0.0785,-0.073,-0.0639,-0.0583,-0.0463,-0.0381,-0.0182,-0.003,0.0113,0.033,0.0323,0.047,0.0515,0.046,0.0459,0.0428,0.0422,0.0459,0.0458,0.0457,0.0456,0,-0.0886,-0.0879,-0.0917,-0.0904,-0.0902,-0.0922,-0.0869,-0.085,-0.0759,-0.0681,-0.0648,-0.0451,-0.0244,-0.0044,0.0205,0.0333,0.0527,0.0602,0.0521,0.0554,0.0632,0.0622,0.0769,0.0772,0.0775,0.0777,0.0778,0,-0.0932,-0.0967,-0.0993,-0.1024,-0.1022,-0.1031,-0.1028,-0.0934,-0.0892,-0.0709,-0.0669,-0.0452,-0.027,0.0099,0.0358,0.0626,0.0606,0.073,0.0704,0.0639,0.0668,0.0654,0.064,0.0695,0.0696,0.0697,0.0698,0,-0.1014,-0.1024,-0.1056,-0.1136,-0.1157,-0.1166,-0.1141,-0.1123,-0.0978,-0.0875,-0.068,-0.0515,-0.0137,0.0176,0.0512,0.065,0.0681,0.0755,0.0729,0.0619,0.058,0.0604,0.0592,0.0704,0.0703,0.0703,0.0702,0.0702,-0.1065,-0.1118,-0.1169,-0.1234,-0.1267,-0.1282,-0.128,-0.1205,-0.1115,-0.0927,-0.0727,-0.0442,-0.0116,0.0374,0.061,0.0806,0.0804,0.0835,0.0829,0.0822,0.0786,0.0753,0.0902,0.0902,0.0903,0.0903,0.0903,0,-0.1124,-0.1179,-0.1257,-0.1326,-0.1371,-0.1367,-0.1332,-0.1276,-0.1159,-0.094,-0.0719,-0.0316,0.004,0.0352,0.0697,0.0912,0.0867,0.0908,0.0812,0.0805,0.0799,0.0757,0.0868,0.0869,0.0869,0.087,0,0,-0.1158,-0.1242,-0.1285,-0.1386,-0.1438,-0.145,-0.143,-0.1313,-0.1135,-0.0897,-0.0659,-0.037,0.0069,0.0305,0.0561,0.0729,0.0699,0.0722,0.0727,0.0575,0.0566,0.0734,0.0659,0,0,0,0,0]}],[{"header":{"parameterUnit":"m.s-1","parameterCategory":2,"la1":30.2991,"la2":30.254,"lo1":-89.0895,"lo2":-89.0444,"dy":0.0017,"dx":0.0017,"nx":28,"ny":28,"refTime":"2024-05-25T09:00:00:Z","depth":"4","parameterNumber":2,"parameterNumberName":"U-component_of_CURRENTS"},"data":[0,0,0,0,0,0,0,0,0,0,0,0,0,0,0,0,0,0,0,0,0,0,0,0,0,0,0,0,0,0,0,0,0,0,0,0,0,0,0,0,0,0,0,0,0,0,0,0,0,0,0,0,0,0,0,0,0,0,-0.1931,-0.1932,0,-0.202,-0.202,-0.2021,-0.2073,-0.2073,-0.2074,-0.2074,-0.2145,-0.2146,-0.2147,0,0,0,0,0,0,0,0,0,0,0,0,0,-0.1805,-0.1807,-0.1931,-0.1932,-0.1933,-0.2019,-0.202,-0.2021,-0.2073,-0.2073,-0.2074,-0.2074,-0.2144,-0.2146,-0.2148,0,0,0,0,0,0,0,0,0,0,0,0,0,-0.1871,-0.1807,-0.1931,-0.1971,-0.1976,-0.2019,-0.202,-0.2022,-0.2073,-0.2073,-0.2074,-0.2075,-0.2143,-0.2146,-0.2148,-0.215,0,0,-0.2155,-0.2156,0,0,0,0,0,0,0,0,-0.1867,-0.1875,-0.1964,-0.1968,-0.1974,-0.2038,-0.2002,-0.2064,-0.2073,-0.2034,-0.2074,-0.2075,-0.2108,-0.2113,-0.2126,-0.2153,-0.2156,-0.2155,-0.2156,-0.2157,-0.2158,0,0,0,0,0,0,0,-0.1863,-0.1872,-0.1964,-0.1965,-0.1971,-0.1984,-0.1994,-0.2014,-0.2064,-0.2037,-0.2042,-0.2055,-0.211,-0.2124,-0.2128,-0.2157,-0.2155,-0.2157,-0.2158,-0.2159,-0.228,-0.2281,0,0,0,0,0,0,-0.1855,-0.1868,-0.1961,-0.1967,-0.1923,-0.1986,-0.1997,-0.2015,-0.2065,-0.2074,-0.2054,-0.2057,-0.2119,-0.2125,-0.2131,-0.2219,-0.2157,-0.2159,-0.2161,-0.2278,-0.228,-0.2282,0,0,0,0,0,0,-0.1852,-0.1863,-0.1958,-0.192,-0.1934,-0.1988,-0.2007,-0.2016,-0.2063,-0.2078,-0.2087,-0.2096,-0.212,-0.2127,-0.2184,-0.2219,-0.216,-0.2162,-0.2276,-0.2278,-0.2281,-0.2342,0,0,0,0,0,0,-0.1848,-0.1861,-0.1888,-0.192,-0.1936,-0.2007,-0.2007,-0.2018,-0.2069,-0.2075,-0.2116,-0.2121,-0.2121,-0.2181,-0.2186,-0.2221,-0.2164,-0.2273,-0.2277,-0.228,-0.2338,-0.2346,-0.2354,0,0,0,0,0,-0.1844,-0.1873,-0.1889,-0.1901,-0.1965,-0.2009,-0.2019,-0.2057,-0.2071,-0.21,-0.2132,-0.2122,-0.2206,-0.2184,-0.219,-0.2226,-0.2272,-0.2276,-0.228,-0.2334,-0.2345,-0.2354,0,0,0,0,0,0,-0.1835,-0.1882,-0.19,-0.1944,-0.1985,-0.2019,-0.2055,-0.2076,-0.2125,-0.214,-0.2148,-0.2156,-0.2216,-0.2216,-0.2192,-0.2272,-0.2236,-0.2242,-0.2275,-0.2286,-0.2294,-0.2281,-0.2166,0,0,0,0,0,-0.1844,-0.188,-0.1922,-0.1961,-0.1985,-0.2025,-0.2055,-0.2082,-0.2121,-0.2145,-0.2173,-0.2204,-0.2232,-0.2256,-0.2279,-0.2326,-0.23,-0.2353,-0.2361,-0.2368,-0.2363,-0.236,-0.2367,-0.2296,-0.2296,-0.2296,0,0,-0.1851,-0.1883,-0.1905,-0.1963,-0.1998,-0.2043,-0.2045,-0.2102,-0.2146,-0.2143,-0.2219,-0.2236,-0.2251,-0.2304,-0.2331,-0.2313,-0.2375,-0.2373,-0.2379,-0.237,-0.2365,-0.2371,-0.2377,-0.2299,-0.2298,-0.2298,0,0,-0.1874,-0.1915,-0.1951,-0.1991,-0.2053,-0.2079,-0.2102,-0.2158,-0.2194,-0.2261,-0.2267,-0.2307,-0.2362,-0.2373,-0.2385,-0.2452,-0.2417,-0.2467,-0.2502,-0.25,-0.2505,-0.251,-0.2481,-0.2482,-0.2474,-0.2474,-0.2474,0,-0.1884,-0.1935,-0.1969,-0.2016,-0.2055,-0.2098,-0.2147,-0.2189,-0.2259,-0.2285,-0.2299,-0.2373,-0.2391,-0.2434,-0.2461,-0.247,-0.2453,-0.2462,-0.2509,-0.2513,-0.2516,-0.2485,-0.2486,-0.2477,-0.2477,-0.2477,-0.2476,0,-0.1924,-0.1981,-0.2008,-0.208,-0.2125,-0.2178,-0.2233,-0.2287,-0.2334,-0.2365,-0.2432,-0.2456,-0.2493,-0.2512,-0.2511,-0.2547,-0.2522,-0.2516,-0.2478,-0.2526,-0.2492,-0.2491,-0.2482,-0.2481,-0.248,-0.2479,0,0,-0.1898,-0.2014,-0.2027,-0.2072,-0.2166,-0.22,-0.2281,-0.2348,-0.2389,-0.2459,-0.2501,-0.2561,-0.2566,-0.2579,-0.2582,-0.2588,-0.26,-0.2568,-0.2567,-0.2529,-0.2578,-0.2406,-0.2388,-0.2604,-0.2604,-0.2604,-0.2543,0,-0.1921,-0.2012,-0.2067,-0.2157,-0.2207,-0.2275,-0.2337,-0.2404,-0.2458,-0.2508,-0.2541,-0.2585,-0.2595,-0.2612,-0.2624,-0.2607,-0.2602,-0.2616,-0.2546,-0.2543,-0.2376,-0.2383,-0.2606,-0.2542,-0.2541,-0.2541,-0.2541,0,-0.1929,-0.1995,-0.2088,-0.2194,-0.2221,-0.2282,-0.2374,-0.2436,-0.251,-0.2549,-0.2598,-0.2616,-0.265,-0.2642,-0.264,-0.265,-0.2618,-0.2598,-0.2595,-0.2409,-0.2369,-0.2486,-0.2539,-0.2539,-0.2539,-0.2539,-0.254,0,-0.1872,-0.1999,-0.2075,-0.2116,-0.2244,-0.2298,-0.2363,-0.245,-0.2499,-0.257,-0.2601,-0.2642,-0.2663,-0.2649,-0.2623,-0.2636,-0.2589,-0.2598,-0.2408,-0.2396,-0.2543,-0.2539,-0.2575,-0.2575,-0.2575,-0.2575,-0.2575,0,-0.1852,-0.1913,-0.2061,-0.2101,-0.2178,-0.2278,-0.2353,-0.2418,-0.2506,-0.2538,-0.2615,-0.2618,-0.2668,-0.265,-0.2619,-0.2495,-0.2586,-0.2396,-0.2364,-0.257,-0.2571,-0.2541,-0.2538,-0.2573,-0.2573,-0.2574,-0.2574,0,-0.1766,-0.1874,-0.196,-0.2108,-0.2156,-0.2206,-0.2344,-0.2382,-0.2487,-0.2527,-0.2551,-0.2614,-0.2574,-0.2583,-0.2542,-0.2466,-0.238,-0.2311,-0.2511,-0.2495,-0.219,-0.2191,-0.209,-0.2083,-0.2077,-0.2073,-0.2069,0,-0.1726,-0.177,-0.1934,-0.1975,-0.2047,-0.2146,-0.2203,-0.2348,-0.2381,-0.2487,-0.2475,-0.2493,-0.2503,-0.2296,-0.2334,-0.2237,-0.2214,-0.2164,-0.2192,-0.2159,-0.2139,-0.2149,-0.2158,-0.206,-0.2058,-0.2057,-0.2055,0,-0.163,-0.1705,-0.1766,-0.1854,-0.1932,-0.2006,-0.2099,-0.2115,-0.2252,-0.2387,-0.2318,-0.2273,-0.2214,-0.2159,-0.2094,-0.2034,-0.2198,-0.2105,-0.2117,-0.2143,-0.2121,-0.2109,-0.2125,-0.2036,-0.2039,-0.204,-0.2042,0,-0.1537,-0.155,-0.1632,-0.1688,-0.1781,-0.1804,-0.1893,-0.1923,-0.1983,-0.2126,-0.209,-0.2103,-0.2178,-0.2049,-0.1989,-0.1914,-0.1892,-0.1843,-0.1869,-0.1891,-0.1854,-0.1799,-0.1566,0,0,0,0,0,-0.1428,-0.1413,-0.1452,-0.1498,-0.1584,-0.1631,-0.178,-0.1874,-0.2033,-0.1928,-0.2006,-0.1935,-0.1843,-0.1852,-0.1727,-0.1891,-0.1896,-0.1739,-0.1855,-0.1927,-0.195,-0.1924,0,0,0,0,0,0,-0.1345,-0.1367,-0.1383,-0.1317,-0.1309,-0.138,-0.1467,-0.1588,-0.1549,-0.1714,-0.1664,-0.1797,-0.1724,-0.185,-0.1667,-0.1674,-0.1706,-0.1776,-0.177,-0.1914,-0.1935,-0.1953,-0.1935,0,0,0,0,0]},{"header":{"parameterUnit":"m.s-1","parameterCategory":2,"la1":30.2991,"la2":30.254,"lo1":-89.0895,"lo2":-89.0444,"dy":0.0017,"dx":0.0017,"nx":28,"ny":28,"refTime":"2024-05-25T09:00:00:Z","depth":"4","parameterNumber":3,"parameterNumberName":"V-component_of_CURRENTS"},"data":[0,0,0,0,0,0,0,0,0,0,0,0,0,0,0,0,0,0,0,0,0,0,0,0,0,0,0,0,0,0,0,0,0,0,0,0,0,0,0,0,0,0,0,0,0,0,0,0,0,0,0,0,0,0,0,0,0,0,-0.0178,-0.0178,0,-0.0107,-0.0106,-0.0105,-0.0056,-0.0056,-0.0056,-0.0056,0.005,0.0053,0.0055,0,0,0,0,0,0,0,0,0,0,0,0,0,-0.0223,-0.0223,-0.0178,-0.0178,-0.0177,-0.0107,-0.0106,-0.0104,-0.0056,-0.0056,-0.0056,-0.0056,0.0049,0.0052,0.0055,0,0,0,0,0,0,0,0,0,0,0,0,0,-0.0181,-0.0222,-0.0179,-0.0146,-0.0143,-0.0107,-0.0105,-0.0104,-0.0056,-0.0056,-0.0056,-0.0056,0.0048,0.0052,0.0056,0.0077,0,0,0.0068,0.007,0,0,0,0,0,0,0,0,-0.0183,-0.0179,-0.0152,-0.0148,-0.0144,-0.0092,-0.0083,-0.0043,-0.0056,-0.0087,-0.0056,-0.0055,0.0004,0.0012,0.0027,0.0082,0.0086,0.0069,0.0071,0.0073,0.0074,0,0,0,0,0,0,0,-0.0186,-0.0181,-0.0148,-0.0151,-0.0147,-0.0118,-0.0112,-0.0075,-0.0041,-0.0084,-0.0081,-0.0076,0.0007,0.0023,0.003,0.0088,0.0068,0.0072,0.0074,0.0076,0.0185,0.0185,0,0,0,0,0,0,-0.0203,-0.0185,-0.015,-0.0146,-0.0166,-0.0118,-0.0111,-0.0107,-0.0042,-0.0033,-0.0077,-0.0075,0.0016,0.0026,0.0034,0.0067,0.0073,0.0076,0.0079,0.0184,0.0185,0.0185,0,0,0,0,0,0,-0.0204,-0.02,-0.0153,-0.0165,-0.0157,-0.0118,-0.0114,-0.0106,-0.0091,-0.0037,-0.0027,-0.0071,0.0017,0.0029,0.0067,0.0071,0.0078,0.0082,0.0184,0.0185,0.0185,0.013,0,0,0,0,0,0,-0.0205,-0.0201,-0.0207,-0.0166,-0.0157,-0.0138,-0.0114,-0.0105,-0.009,-0.0086,-0.0029,-0.0019,0.0018,0.006,0.0071,0.0077,0.0085,0.0183,0.0184,0.0185,0.0132,0.0129,0.0127,0,0,0,0,0,-0.0207,-0.0216,-0.0207,-0.0203,-0.0166,-0.0138,-0.0131,-0.01,-0.009,-0.0086,-0.0045,-0.0021,0.0074,0.0064,0.0076,0.0084,0.0183,0.0184,0.0185,0.0133,0.013,0.0127,0,0,0,0,0,0,-0.0237,-0.021,-0.0201,-0.0201,-0.0176,-0.0131,-0.0128,-0.0106,-0.0071,-0.0069,-0.0016,-0.0003,0.0029,0.0066,0.0054,0.0119,0.0133,0.0137,0.009,0.0087,0.0085,0.0067,0.0088,0,0,0,0,0,-0.0248,-0.0249,-0.0215,-0.0217,-0.0208,-0.017,-0.0157,-0.0135,-0.0099,-0.0083,-0.0042,0.0004,0.0044,0.0072,0.0108,0.0146,0.018,0.0161,0.0158,0.0156,0.015,0.021,0.0212,0.0189,0.0189,0.0189,0,0,-0.0261,-0.0247,-0.0248,-0.0224,-0.0203,-0.0191,-0.0161,-0.0146,-0.0131,-0.0077,-0.0047,-0.001,0.0049,0.0087,0.0106,0.012,0.0181,0.0157,0.0155,0.0151,0.0211,0.0213,0.0215,0.019,0.019,0.0189,0,0,-0.0288,-0.0275,-0.0284,-0.0265,-0.0241,-0.0214,-0.0214,-0.0172,-0.0149,-0.0118,-0.0076,-0.0031,0.0026,0.0077,0.0108,0.0119,0.0157,0.0127,0.0112,0.0169,0.0171,0.0174,0.0214,0.022,0.0137,0.0137,0.0137,0,-0.0306,-0.031,-0.0282,-0.0282,-0.0271,-0.0229,-0.023,-0.0198,-0.0148,-0.0127,-0.0117,-0.0024,0.0025,0.0084,0.0087,0.0114,0.0141,0.0114,0.0165,0.0168,0.0171,0.0212,0.022,0.0134,0.0135,0.0135,0.0135,0,-0.0333,-0.0336,-0.0339,-0.0325,-0.0308,-0.0303,-0.0258,-0.0237,-0.0208,-0.017,-0.0119,-0.0051,0.0008,0.0032,0.0062,0.0112,0.0121,0.0144,0.0166,0.017,0.0213,0.0222,0.0131,0.0132,0.0132,0.0133,0,0,-0.0376,-0.0363,-0.0366,-0.0368,-0.0331,-0.0321,-0.0296,-0.0258,-0.0241,-0.0186,-0.0153,-0.0077,-0.0041,-0.0003,0.0049,0.0102,0.015,0.0124,0.0128,0.0153,0.0259,0.0244,0.0252,0.0175,0.0176,0.0177,0.0277,0,-0.0408,-0.0431,-0.0404,-0.0413,-0.042,-0.0369,-0.0349,-0.0306,-0.0261,-0.0218,-0.0137,-0.009,-0.0052,-0.0026,0.0034,0.0119,0.0171,0.012,0.0261,0.0265,0.0243,0.0262,0.0182,0.0284,0.0286,0.0287,0.0288,0,-0.0443,-0.0455,-0.0482,-0.0464,-0.046,-0.0455,-0.0418,-0.0391,-0.0314,-0.0276,-0.021,-0.0147,-0.0057,-0.003,0.0119,0.0078,0.0158,0.0225,0.0231,0.0241,0.0267,0.0284,0.0305,0.0304,0.0303,0.0301,0.03,0,-0.0502,-0.0504,-0.0532,-0.0527,-0.0502,-0.05,-0.0482,-0.042,-0.0394,-0.0315,-0.0287,-0.0174,-0.0112,-0.0003,0.0136,0.0127,0.0293,0.0308,0.0372,0.0372,0.0378,0.0375,0.0411,0.0411,0.0411,0.0411,0.0411,0,-0.0544,-0.0565,-0.0569,-0.0585,-0.0613,-0.0565,-0.057,-0.0531,-0.0464,-0.0428,-0.0328,-0.0268,-0.0105,0.0014,0.0128,0.0274,0.0296,0.0369,0.04,0.0353,0.0345,0.0384,0.038,0.0415,0.0414,0.0413,0.0412,0,-0.06,-0.0602,-0.064,-0.0642,-0.0648,-0.0671,-0.0645,-0.0634,-0.0566,-0.0515,-0.049,-0.033,-0.0176,-0.0017,0.0182,0.0266,0.0408,0.0456,0.0383,0.0409,0.0448,0.0439,0.0532,0.0532,0.0533,0.0533,0.0533,0,-0.0629,-0.0659,-0.0705,-0.0742,-0.075,-0.077,-0.0778,-0.0708,-0.0679,-0.0545,-0.0516,-0.0355,-0.024,0.0025,0.0192,0.0404,0.0434,0.05,0.0478,0.044,0.0462,0.0453,0.0445,0.0534,0.0534,0.0534,0.0534,0,-0.0683,-0.0709,-0.0743,-0.0832,-0.0866,-0.0885,-0.088,-0.0861,-0.0753,-0.069,-0.0523,-0.0359,-0.018,0.0029,0.0193,0.0348,0.0451,0.0504,0.0504,0.0484,0.0444,0.0463,0.0454,0.0535,0.0535,0.0535,0.0535,0,-0.0725,-0.0773,-0.0834,-0.09,-0.0958,-0.0978,-0.0964,-0.0891,-0.0835,-0.0659,-0.06,-0.0382,-0.0232,0.0002,0.0159,0.0301,0.0335,0.0374,0.0381,0.0382,0.0305,0.0229,0.0283,0,0,0,0,0,-0.0755,-0.0811,-0.0892,-0.0963,-0.1022,-0.1042,-0.1016,-0.0973,-0.0862,-0.0755,-0.0667,-0.0489,-0.0209,-0.0074,0.0063,0.0132,0.0328,0.0296,0.0367,0.0541,0.054,0.0473,0,0,0,0,0,0,-0.0778,-0.0858,-0.09,-0.0996,-0.1049,-0.1092,-0.1075,-0.0999,-0.0914,-0.0783,-0.0634,-0.0483,-0.0224,-0.0307,0.0052,0.0103,0.0163,0.0446,0.0449,0.0542,0.0541,0.054,0.047,0,0,0,0,0]}]]